Portada
METAR-TAF:

METAR-TAF

Aeroports :

Sussex Airport

Sussex, Nova Jersey, Estats Units d'Amèrica

latitud: 41-12-01N, longitud: 074-37-23W, altitud: 128 m

Observació

L'informe es va fer fa 28 minuts, a les 09:53 UTC
Vent 5 kt del Nord
Temperatura 3°C
Humitat 75%
Pressió 1012 hPa
Visibilitat: 16.1 km
Cel cobert a una alçada de 5500 ft

METAR: KFWN 200953Z AUTO 35005KT 10SM OVC055 03/M01 A2989 RMK AO2 SLP123 T00331011

Hora: 05:21 (10:21 UTC)


TAF: manca

Observacions i pronòstics meteorològics de més de 4000 aeroports (METAR i TAF).

Les estacions disponibles són els punts grocs i vermells al mapa.

Posi el ratolí al punt desitjat per veure el nom de l'estació.

Feu clic per veure les observacions i els pronòstics meteorològics.

Per canviar el mapa: feu clic els botons verds amb una creu de color negre per apropar; al botó verd amb un guió per allunyar la imatge; o en les fletxes verdes per a mapes adjacents.


METAR-TAF: